Погода в Бомнаке

Погода в Бомнаке : погода сейчас, прогноз погоды и архив. Всё, что Вы хотите узнать о погоде в Бомнаке!

Поиск расширенной информации на нашем сайте:

Другие новости

Новости СМИ2

Главная страница сайта

Новости сайта

03.07.2017

Напоминаем, что на нашем специализированном сайте Метеоцентр.Азия вы можете получить высокодетализированные автоматические прогнозы погоды по пунктам России, СНГ и мира в авиационном формате (включающие направление и скорость ветра, видимость, явления погоды, количество и форму облачности, нижнюю и верхнюю границу облачности).


Погода в Бомнаке - сегодня

Время (UTC), дата Ветер
(°,м/с) 
Видим.   Явления Облачность Т
(°С)
Тd
(°С)
f(%) Тe
(°С)
Pmin
(гПа)
dP
(гПа)
Po
(мм)
O2
(г/м3)
Тmin Tmax R s Состояние
почвы
21 19.07.18 050 (СВ) 20000 м    10/10 600 м кучево-дожд. 
[Cb cap]
+15 +13.3 90 +22  1005.9  0.4  723  273           
00 20.07.18 040 (СВ) 20000 м    10/10 600 м кучево-дожд. 
[Cb cap]
+16.4 +13.5 83 +24  1005.8  723  272  +14.7        влажная 
03 20.07.18 040 (СВ) 20000 м    10/10 600 м кучево-дожд. 
[Cb cap]
+17.2 +12.9 76 +24  1006  0.4  723  272           
06 20.07.18 050 (СВ) 20000 м    10/10 600 м кучево-дожд. 
[Cb cap]
+17.3 +13.2 77 +25  1006.1  0.1  723  271           
09 20.07.18 140 (ЮВ) 20000 м    4/4 600 м 
[Sc diur, vesp]
+18.4 +13.2 72 +26  1006  723  270           
12 20.07.18 100 (В) 20000 м    ясно 
+15.9 +13.7 87 +24  1007.2  0.9  724  273    +18.7       
15 20.07.18 090 (В) 20000 м    10/8 600 м средняя, верхняя 
[Sc|Ac trans|Ci fib]
+14.2 +12.6 90 +21  1008.3  0.8  725  275           
18 20.07.18 060 (СВ) 20000 м    8/8 600 м 
[Sc]
+12 +10.8 92 +15  1008.7  -0.1  724  278           
21 20.07.18 080 (В) 20000 м    10/10 600 м 
[Sc]
+12.5 +10.7 89 +15  1009.5  725  277           
00 21.07.18 090 (В) 20000 м    10/10 600 м кучево-дожд. 
[Cb cap]
+14.6 +11.6 82 +19  1010.4  1.1  726  275  +12        влажная 
03 21.07.18 090 (В) 20000 м    10/3 600 м верхняя 
[Cu hum|Cs]
+18.8 +13.2 70 +26  1008.4  -1.2  725  271           
06 21.07.18 140 (ЮВ) 20000 м    10/3 600 м верхняя 
[Cu hum|Cs]
+21.7 +13.9 61 +29  1006.9  -1.1  724  268           
09 21.07.18 130 (ЮВ) 20000 м    10/6 600 м верхняя 
[Sc diur, vesp|Cs]
+20.9 +13 61 +27  1006.9  -0.1  724  268           
15 21.07.18 080 (В) 20000 м    10/10 600 м 
[Sc]
+16.6 +11.8 73 +20  1006.7  -0.7  724  273           
18 21.07.18 080 (В) 20000 м    10/10 600 м кучево-дожд. 
[Cb cap]
+15.7 +9.4 66 +17  1005.3  -1.5  722  274           
21 21.07.18 090 (В) 20000 м    10/10 600 м кучево-дожд. 
[Cb cap]
+15.2 +8.6 65 +15  1004.7  -0.7  722  274           
00 22.07.18 070 (В) 10 км  слаб. ливневой дождь  10/10 600 м кучево-дожд. 
[Cb cap]
+12.9 +10.2 84 +14  1003.8  -1.2  721  275  +12.9      влажная 
12 22.07.18 090 (В) 20000 м  {ливн. осадки}  10/10 600 м кучево-дожд. 
[Cb cap]
+14.6 +13.6 94 +21  1000.2  0.1  719  272    +14.6     
15 22.07.18 120 (ЮВ) 4000 м  слаб. ливневой дождь  10/10 600 м кучево-дожд. 
[Cb cap]
+12.6 +11.9 95 +17  1001.1  0.6  719  275           
18 22.07.18 050 (СВ) 20000 м  {ливн. осадки}  10/10 600 м кучево-дожд. 
[Cb cap]
+12.1 +11.5 96 +16  1002.1  0.9  720  275           
21 22.07.18 080 (В) 0500 м  туман  10/10 600 м 
[Sc diur, vesp]
+12.1 +11.6 97 +17  1003.3  1.2  721  276           
00 23.07.18 090 (В) 20000 м  {туман}  10/10 600 м 
[Sc]
+13 +12.5 97 +19  1004  0.8  721  275  +11.9      влажная 
03 23.07.18 180 (Ю) 20000 м    10/8 600 м кучево-дожд., верхняя 
[Cb cap|Cs]
+16.4 +14.1 86 +25  1004.2  0.6  722  271           
06 23.07.18 180 (Ю) 20000 м    10/5 600 м средняя, верхняя 
[Sc diur, vesp|Ac trans|Ci fib]
+19.2 +15.1 77 +30  1003.5  -0.2  722  268           
09 23.07.18 190 (Ю) 20000 м    10/8 600 м кучево-дожд., верхняя 
[Cb cap|Cs]
+18.3 +15.4 83 +30  1004.3  0.6  722  269           
Время (UTC), дата Ветер
(°,м/с) 
Видим.   Явления Облачность Т
(°С)
Тd
(°С)
f(%) Тe
(°С)
Pmin
(гПа)
dP
(гПа)
Po
(мм)
O2
(г/м3)
Тmin Tmax R s Состояние
почвы

Для получения пояснительной информации подведите курсор к названию столбца.

ПОГОДА в Бомнаке - архив

Всё, что Вы хотите узнать о погоде в Бомнаке - удобно и подробно!

Выберите нужную дату (начиная с 1 января 2015* года) и нажмите кнопку "Найти".
Будут отображены архивные сводки погоды по пункту Бомнак, начиная с указанной даты.


Отображать данные в формате CSV (для использования в таблицах Excel)


Внимание! Наш архив погоды предназначен исключительно для личного некоммерческого использования в познавательных целях. Если Вам необходимы официальные справки о состоянии погоды (для производственных, юридических, коммерческих и т.п. целей), обращайтесь в органы Росгидромета.

*Примечание: данная дата относится к архиву по метеостанциям СССР (Россия, СНГ, Балтия).
Архив по метеостанциям Зарубежной Европы и Азии (кроме Китая) хранится 10 дней, по другим регионам земного шара (Китай, Африка, Америка, Австралия, Океания) - 1 день.

Бомнак - район местоположения метеостанции


Название, широта, долгота, высота метеостанции:
Бомнак 54.7°ш. 128.9°д. 357 м над ур. моря [Российская Федерация]

Дополнительная информация

В oтличие oт бoльшинства пoгoдных сайтoв мы публикуем пoдрoбную метеoинфoрмацию в детальнoм прoфессиoнальнoм фoрмате.

Характеристики температуры и влажнoсти вoздуха измеряются на высoте 2 м в тени вдали oт зданий и деревьев.
Скoрoсть ветра измеряется на высoте 10 м (на урoвне рoста челoвека скoрoсть ветра ниже в 1.5-2 раза). Если метеoстанция нахoдится в гoрoде или в лесу, тo скoрoсть ветра занижена на 2-4 м/с пo сравнению с oткрытым местoм. Скoрoсть ветра над акватoриями крупных рек и oзёр, а также на вершинах хoлмoв на 2-5 м/с выше, чем в oбычных услoвиях.
Атмoсфернoе давление в разных тoчках местнoсти мoжет значительнo oтличаться oт давления на метеoстанции, в зависимoсти oт услoвий рельефа (при пoдъёме на 10 м давление пoнижается примернo на 1 мм рт.ст.).